Weather History for Highgate, VT

Change the Weather History Date:

Wednesday, June 12, 2013

  Actual Average (KPBG) Record (KPBG)
Temperature  
Mean Temperature 64 °F 63 °F  
Max Temperature 74 °F 74 °F 92 °F (1956)
Min Temperature 54 °F 53 °F 41 °F (1966)
Degree Days  
Heating Degree Days 2    
Cooling Degree Days 0 2  
Month to date cooling degree days 17  
Year to date cooling degree days 25  
Since 1 June cooling degree days 17  
Growing Degree Days 14 (Base 50)    
Moisture  
Dew Point 53 °F    
Average Humidity 75    
Maximum Humidity 91    
Minimum Humidity 49    
Precipitation  
Precipitation 0.00 in - 1.00 in (1973)
Month to date precipitation  
Year to date precipitation  
Sea Level Pressure  
Sea Level Pressure 29.77 in    
Wind  
Wind Speed 8 mph (North)    
Max Wind Speed 15 mph    
Max Gust Speed 25 mph    
Visibility 9 miles    
Events Rain    
T = Trace of Precipitation, MM = Missing Value Source: NWS Daily Summary

Daily Weather History Graph

Daily Weather History Graph

Search for Another Location

Airport:

Trip Planner

Search our weather history database for the weather conditions in past years. The results will help you decide how hot, cold, wet, or windy it might be!

Date:

Astronomy

Jun. 12, 2013 Rise Set
Actual Time 5:05 AM EDT 8:39 PM EDT
Civil Twilight 4:28 AM EDT 9:16 PM EDT
Nautical Twilight 3:39 AM EDT 10:05 PM EDT
Astronomical Twilight 2:34 AM EDT 11:10 PM EDT
Moon 8:49 AM EDT (6/12) 11:04 PM EDT (6/12)
Length of Visible Light 16h 48m
Length of Day
15h 33m
Waxing Crescent, 14% of the Moon is Illuminated
Jun 12
Waxing Crescent
Jun 16
First Quarter
Jun 23
Full
Jun 30
Last Quarter
Jul 8
New

Hourly Weather History & Observations

Time (EDT) Temp. Dew Point Humidity Pressure Visibility Wind Dir Wind Speed Gust Speed Precip Events Conditions
12:15 AM 54.5 °F 51.8 °F 91% 29.65 in 7.0 mi North 6.9 mph - N/A   Light Drizzle
12:35 AM 54.5 °F 51.8 °F 91% 29.65 in 10.0 mi North 6.9 mph - N/A Rain Rain
12:55 AM 54.5 °F 51.8 °F 91% 29.65 in 10.0 mi North 6.9 mph - N/A   Drizzle
1:15 AM 54.5 °F 51.8 °F 91% 29.65 in 10.0 mi North 8.1 mph - N/A   Light Drizzle
1:35 AM 54.5 °F 51.8 °F 91% 29.66 in 7.0 mi North 6.9 mph - N/A   Drizzle
1:55 AM 54.5 °F 51.8 °F 91% 29.66 in 10.0 mi North 9.2 mph - N/A   Drizzle
2:15 AM 54.7 °F 52.2 °F 91% 29.66 in 7.0 mi North 5.8 mph - N/A   Drizzle
2:35 AM 55.6 °F 53.1 °F 91% 29.66 in 7.0 mi North 8.1 mph - N/A   Drizzle
2:55 AM 55.9 °F 53.4 °F 91% 29.66 in 7.0 mi North 9.2 mph 17.3 mph N/A Rain Light Rain
3:15 AM 56.1 °F 53.6 °F 91% 29.67 in 7.0 mi North 12.7 mph 16.1 mph N/A Rain Light Rain
3:35 AM 56.1 °F 53.4 °F 91% 29.67 in 7.0 mi North 11.5 mph - N/A Rain Rain
3:55 AM 56.3 °F 53.6 °F 91% 29.68 in 5.0 mi North 10.4 mph 17.3 mph N/A   Light Drizzle
4:15 AM 56.8 °F 54.1 °F 91% 29.69 in 5.0 mi North 10.4 mph 18.4 mph N/A Rain Light Rain
4:35 AM 56.8 °F 54.1 °F 91% 29.69 in 4.0 mi North 11.5 mph 17.3 mph N/A Rain Rain
4:55 AM 56.8 °F 54.1 °F 91% 29.70 in 5.0 mi North 13.8 mph 23.0 mph N/A Rain Light Rain
5:15 AM 56.8 °F 54.0 °F 90% 29.71 in 10.0 mi North 11.5 mph 18.4 mph N/A   Light Drizzle
5:35 AM 56.8 °F 53.8 °F 89% 29.71 in 10.0 mi North 11.5 mph 17.3 mph N/A   Drizzle
5:55 AM 56.8 °F 53.6 °F 89% 29.72 in 10.0 mi North 9.2 mph 18.4 mph N/A   Light Drizzle
6:15 AM 56.8 °F 53.2 °F 88% 29.72 in 10.0 mi North 15.0 mph 23.0 mph N/A   Overcast
6:35 AM 56.8 °F 52.7 °F 86% 29.73 in 10.0 mi North 11.5 mph 19.6 mph N/A   Overcast
6:55 AM 56.8 °F 52.3 °F 85% 29.73 in 10.0 mi North 10.4 mph 17.3 mph N/A   Overcast
7:15 AM 57.4 °F 52.5 °F 84% 29.74 in 10.0 mi North 11.5 mph 17.3 mph N/A   Overcast
7:35 AM 59.4 °F 53.8 °F 82% 29.75 in 10.0 mi North 12.7 mph 17.3 mph N/A   Overcast
7:55 AM 59.4 °F 53.1 °F 80% 29.75 in 10.0 mi North 11.5 mph - N/A   Overcast
8:15 AM 60.8 °F 51.6 °F 72% 29.76 in 10.0 mi North 15.0 mph 25.3 mph N/A   Mostly Cloudy
8:35 AM 61.5 °F 51.8 °F 70% 29.77 in 10.0 mi North 10.4 mph 23.0 mph N/A   Overcast
8:55 AM 61.9 °F 52.0 °F 70% 29.77 in 10.0 mi North 13.8 mph 18.4 mph N/A   Overcast
9:15 AM 61.9 °F 52.0 °F 70% 29.77 in 10.0 mi North 13.8 mph 23.0 mph N/A   Overcast
9:35 AM 61.9 °F 51.1 °F 68% 29.78 in 10.0 mi North 15.0 mph 24.2 mph N/A   Overcast
9:55 AM 62.1 °F 50.7 °F 66% 29.78 in 10.0 mi North 15.0 mph 24.2 mph N/A   Overcast
10:15 AM 63.0 °F 51.3 °F 66% 29.79 in 10.0 mi North 13.8 mph 23.0 mph N/A   Overcast
10:35 AM 64.0 °F 51.4 °F 64% 29.79 in 10.0 mi North 12.7 mph 23.0 mph N/A   Overcast
10:55 AM 62.8 °F 50.5 °F 64% 29.80 in 10.0 mi North 12.7 mph 25.3 mph N/A   Overcast
11:15 AM 64.4 °F 51.8 °F 64% 29.80 in 10.0 mi North 15.0 mph 19.6 mph N/A   Overcast
11:35 AM 64.4 °F 52.3 °F 65% 29.81 in 10.0 mi North 10.4 mph 17.3 mph N/A   Overcast
11:55 AM 64.4 °F 52.5 °F 65% 29.81 in 10.0 mi North 10.4 mph 16.1 mph N/A   Overcast
12:15 PM 63.5 °F 51.1 °F 64% 29.82 in 10.0 mi North 9.2 mph 17.3 mph N/A   Overcast
12:35 PM 62.8 °F 52.0 °F 68% 29.82 in 10.0 mi North 6.9 mph - N/A   Light Drizzle
12:55 PM 64.0 °F 52.3 °F 66% 29.82 in 10.0 mi NNE 8.1 mph - N/A   Overcast
1:15 PM 62.6 °F 51.1 °F 66% 29.82 in 10.0 mi North 9.2 mph - N/A Rain Light Rain
1:35 PM 62.1 °F 50.7 °F 66% 29.83 in 10.0 mi North 4.6 mph - N/A   Overcast
1:55 PM 62.8 °F 51.1 °F 66% 29.83 in 10.0 mi North 5.8 mph - N/A   Overcast
2:15 PM 65.5 °F 53.1 °F 64% 29.82 in 10.0 mi Calm Calm - N/A   Overcast
2:35 PM 67.1 °F 53.1 °F 61% 29.82 in 10.0 mi North 3.5 mph - N/A   Overcast
2:55 PM 64.4 °F 52.5 °F 65% 29.82 in 10.0 mi Calm Calm - N/A   Overcast
3:15 PM 68.2 °F 54.5 °F 62% 29.82 in 10.0 mi Calm Calm - N/A   Overcast
3:35 PM 69.4 °F 52.5 °F 55% 29.81 in 10.0 mi North 3.5 mph - N/A   Overcast
3:55 PM 69.8 °F 50.7 °F 51% 29.80 in 10.0 mi NNE 5.8 mph - N/A   Overcast
4:15 PM 69.8 °F 52.2 °F 53% 29.81 in 10.0 mi Calm Calm - N/A   Overcast
4:35 PM 72.1 °F 52.0 °F 49% 29.81 in 10.0 mi East 3.5 mph - N/A   Overcast
4:55 PM 73.6 °F 54.3 °F 51% 29.81 in 10.0 mi NE 3.5 mph - N/A   Overcast
5:15 PM 69.4 °F 53.8 °F 57% 29.81 in 10.0 mi ESE 3.5 mph - N/A   Overcast
5:35 PM 69.4 °F 52.5 °F 55% 29.80 in 10.0 mi Calm Calm - N/A   Overcast
5:55 PM 70.0 °F 52.7 °F 54% 29.79 in 10.0 mi ESE 3.5 mph - N/A   Mostly Cloudy
6:15 PM 69.4 °F 54.0 °F 58% 29.80 in 10.0 mi Calm Calm - N/A   Scattered Clouds
6:35 PM 69.4 °F 54.0 °F 58% 29.80 in 10.0 mi Calm Calm - N/A   Clear
6:55 PM 66.4 °F 57.4 °F 73% 29.80 in 10.0 mi Calm Calm - N/A   Clear
7:15 PM 66.4 °F 57.2 °F 72% 29.81 in 10.0 mi West 3.5 mph - N/A   Clear
7:35 PM 66.9 °F 56.5 °F 69% 29.82 in 10.0 mi Calm Calm - N/A   Scattered Clouds
7:55 PM 64.4 °F 54.5 °F 70% 29.82 in 10.0 mi Calm Calm - N/A   Mostly Cloudy
8:15 PM 64.4 °F 53.8 °F 68% 29.82 in 10.0 mi Calm Calm - N/A   Scattered Clouds
8:35 PM 62.4 °F 53.1 °F 71% 29.82 in 10.0 mi Calm Calm - N/A   Scattered Clouds
8:55 PM 60.6 °F 54.0 °F 79% 29.82 in 10.0 mi Calm Calm - N/A   Mostly Cloudy
9:15 PM 60.3 °F 53.6 °F 79% 29.83 in 10.0 mi Calm Calm - N/A   Overcast
9:35 PM 60.4 °F 52.9 °F 76% 29.84 in 10.0 mi Calm Calm - N/A   Overcast
9:55 PM 59.4 °F 53.6 °F 81% 29.85 in 10.0 mi Calm Calm - N/A   Overcast
10:15 PM 59.5 °F 53.8 °F 81% 29.85 in 10.0 mi Calm Calm - N/A   Mostly Cloudy
10:35 PM 59.4 °F 53.8 °F 82% 29.85 in 10.0 mi Calm Calm - N/A   Mostly Cloudy
10:55 PM 56.8 °F 52.9 °F 87% 29.84 in 10.0 mi Calm Calm - N/A   Scattered Clouds
11:15 PM 56.8 °F 53.2 °F 88% 29.84 in 10.0 mi Calm Calm - N/A   Scattered Clouds
11:35 PM 56.5 °F 53.1 °F 88% 29.84 in 10.0 mi Calm Calm - N/A   Mostly Cloudy
11:55 PM 54.9 °F 51.6 °F 89% 29.82 in 10.0 mi Calm Calm - N/A   Mostly Cloudy